| time (UTC) | temp F | wind direction | speed MPH | gust MPH | rain 1hr in | rain 24hr in | rain mn in | humidity % | barometer mb |
| 20260901103050 | 72 | 155 | 1.0 | 4.0 | 0.00 | 0.00 | 0.00 | 77 | 1012.6 |
| 20260901103020 | 67 | 166 | 0.0 | 0.0 | 0.00 | 0.00 | 0.00 | 89 | 1013.6 |
| 20260901101608 | 72 | 359 | 1.0 | 3.0 | 0.00 | 0.00 | 0.00 | 78 | 1012.5 |
| 20260901101523 | 67 | 166 | 0.0 | 0.0 | 0.00 | 0.00 | 0.00 | 90 | 1013.7 |
| 20260901100059 | 71 | 359 | 0.0 | 9.0 | 0.00 | 0.00 | 0.00 | 80 | 1012.4 |
| 20260901100013 | 66 | 166 | 0.0 | 0.0 | 0.00 | 0.00 | 0.00 | 90 | 1013.5 |
| 20260901094545 | 71 | 181 | 0.0 | 0.0 | 0.00 | 0.00 | 0.00 | 82 | 1012.1 |
| 20260901094512 | 66 | 166 | 0.0 | 0.0 | 0.00 | 0.00 | 0.00 | 91 | 1013.6 |
| 20260901093041 | 71 | 179 | 0.0 | 0.0 | 0.00 | 0.00 | 0.00 | 82 | 1012.1 |
| 20260901093011 | 66 | 166 | 0.0 | 0.0 | 0.00 | 0.00 | 0.00 | 90 | 1013.4 |
| 20260901091541 | 71 | 359 | 0.0 | 2.0 | 0.00 | 0.00 | 0.00 | 83 | 1012.0 |
| 20260901091510 | 66 | 166 | 0.0 | 0.0 | 0.00 | 0.00 | 0.00 | 90 | 1013.3 |
| 20260901090040 | 71 | 179 | 0.0 | 0.0 | 0.00 | 0.00 | 0.00 | 84 | 1011.9 |
| 20260901090013 | 66 | 166 | 0.0 | 0.0 | 0.00 | 0.00 | 0.00 | 89 | 1013.5 |
| 20260901084544 | 72 | 359 | 0.0 | 0.0 | 0.00 | 0.00 | 0.00 | 83 | 1011.7 |
| 20260901084507 | 66 | 166 | 0.0 | 0.0 | 0.00 | 0.00 | 0.00 | 89 | 1013.4 |
| 20260901083038 | 72 | 359 | 0.0 | 0.0 | 0.00 | 0.00 | 0.00 | 83 | 1011.5 |
| 20260901083006 | 66 | 166 | 0.0 | 0.0 | 0.00 | 0.00 | 0.00 | 89 | 1013.6 |
| 20260901081540 | 72 | 359 | 0.0 | 0.0 | 0.00 | 0.00 | 0.00 | 83 | 1011.4 |
| 20260901081503 | 67 | 166 | 0.0 | 0.0 | 0.00 | 0.00 | 0.00 | 88 | 1013.6 |
| 20260901080042 | 72 | 359 | 0.0 | 1.0 | 0.00 | 0.00 | 0.00 | 82 | 1011.4 |
| 20260901080005 | 67 | 166 | 0.0 | 0.0 | 0.00 | 0.00 | 0.00 | 87 | 1013.6 |
| 20260901074603 | 67 | 166 | 0.0 | 0.0 | 0.00 | 0.00 | 0.00 | 87 | 1013.6 |
| 20260901074532 | 73 | 183 | 0.0 | 0.0 | 0.00 | 0.00 | 0.00 | 82 | 1011.5 |
| 20260901073059 | 68 | 166 | 0.0 | 0.0 | 0.00 | 0.00 | 0.00 | 86 | 1013.5 |
| 20260901073035 | 73 | 359 | 0.0 | 0.0 | 0.00 | 0.00 | 0.00 | 81 | 1011.6 |
| 20260901071557 | 68 | 166 | 0.0 | 0.0 | 0.00 | 0.00 | 0.00 | 86 | 1013.6 |
| 20260901071529 | 73 | 185 | 0.0 | 0.0 | 0.00 | 0.00 | 0.00 | 81 | 1011.8 |
| 20260901070058 | 68 | 166 | 0.0 | 0.0 | 0.00 | 0.00 | 0.00 | 86 | 1013.5 |
| 20260901070028 | 74 | 359 | 0.0 | 2.0 | 0.00 | 0.00 | 0.00 | 81 | 1011.8 |
| 20260901064554 | 69 | 166 | 0.0 | 0.0 | 0.00 | 0.00 | 0.00 | 86 | 1013.5 |
| 20260901064528 | 74 | 359 | 0.0 | 2.0 | 0.00 | 0.00 | 0.00 | 80 | 1011.8 |
| 20260901063053 | 69 | 169 | 0.0 | 0.0 | 0.00 | 0.00 | 0.00 | 84 | 1013.3 |
| 20260901063024 | 74 | 359 | 0.0 | 0.0 | 0.00 | 0.00 | 0.00 | 79 | 1011.9 |
| 20260901061551 | 69 | 169 | 0.0 | 0.0 | 0.00 | 0.00 | 0.00 | 83 | 1013.2 |
| 20260901061523 | 74 | 359 | 0.0 | 0.0 | 0.00 | 0.00 | 0.00 | 79 | 1012.0 |
| 20260901060050 | 69 | 169 | 0.0 | 0.0 | 0.00 | 0.00 | 0.00 | 83 | 1013.2 |
| 20260901060021 | 74 | 185 | 0.0 | 1.0 | 0.00 | 0.00 | 0.00 | 79 | 1012.0 |
| 20260901054551 | 70 | 169 | 0.0 | 0.0 | 0.00 | 0.00 | 0.00 | 82 | 1013.2 |
| 20260901054520 | 75 | 183 | 0.0 | 0.0 | 0.00 | 0.00 | 0.00 | 80 | 1012.0 |
| 20260901053103 | 70 | 169 | 0.0 | 0.0 | 0.00 | 0.00 | 0.00 | 81 | 1013.1 |
| 20260901053021 | 75 | 179 | 0.0 | 0.0 | 0.00 | 0.00 | 0.00 | 80 | 1011.9 |
| 20260901051550 | 70 | 169 | 0.0 | 0.0 | 0.00 | 0.00 | 0.00 | 81 | 1013.0 |
| 20260901051516 | 76 | 359 | 0.0 | 0.0 | 0.00 | 0.00 | 0.00 | 81 | 1011.9 |
| 20260901050050 | 71 | 169 | 0.0 | 0.0 | 0.00 | 0.00 | 0.00 | 80 | 1012.9 |
| 20260901050012 | 76 | 181 | 0.0 | 0.0 | 0.00 | 0.00 | 0.00 | 82 | 1011.7 |
| 20260901044604 | 71 | 169 | 0.0 | 0.0 | 0.00 | 0.00 | 0.00 | 79 | 1012.9 |
| 20260901044513 | 77 | 359 | 0.0 | 1.0 | 0.00 | 0.00 | 0.00 | 83 | 1011.5 |
| 20260901043049 | 72 | 169 | 0.0 | 0.0 | 0.00 | 0.00 | 0.00 | 78 | 1012.7 |
| 20260901043016 | 77 | 359 | 0.0 | 0.0 | 0.00 | 0.00 | 0.00 | 83 | 1011.5 |
| 20260901041548 | 72 | 169 | 0.0 | 0.0 | 0.00 | 0.00 | 0.00 | 77 | 1012.6 |
| 20260901041509 | 77 | 181 | 0.0 | 1.0 | 0.00 | 0.00 | 0.00 | 83 | 1011.4 |
| 20260901040048 | 73 | 169 | 0.0 | 0.0 | 0.00 | 0.00 | 0.00 | 75 | 1012.4 |
| 20260901040007 | 78 | 172 | 0.0 | 0.0 | 0.00 | 0.00 | 0.00 | 82 | 1011.4 |
| 20260901034547 | 73 | 169 | 0.0 | 0.0 | 0.00 | 0.00 | 0.00 | 75 | 1012.1 |
| 20260901034507 | 78 | 184 | 0.0 | 0.0 | 0.00 | 0.00 | 0.00 | 81 | 1011.3 |
| 20260901033047 | 73 | 169 | 0.0 | 0.0 | 0.00 | 0.00 | 0.00 | 74 | 1011.9 |
| 20260901033006 | 79 | 359 | 0.0 | 0.0 | 0.00 | 0.00 | 0.00 | 80 | 1011.1 |
| 20260901031549 | 74 | 169 | 0.0 | 0.0 | 0.00 | 0.00 | 0.00 | 73 | 1011.8 |
| 20260901031505 | 80 | 189 | 0.0 | 1.0 | 0.00 | 0.00 | 0.00 | 79 | 1011.1 |
| 20260901030051 | 74 | 169 | 0.0 | 0.0 | 0.00 | 0.00 | 0.00 | 72 | 1011.5 |
| 20260901030004 | 80 | 359 | 0.0 | 1.0 | 0.00 | 0.00 | 0.00 | 77 | 1011.0 |
| 20260901024546 | 74 | 155 | 0.0 | 0.0 | 0.00 | 0.00 | 0.00 | 73 | 1011.4 |
| 20260901024505 | 81 | 178 | 0.0 | 1.0 | 0.00 | 0.00 | 0.00 | 76 | 1011.0 |
| 20260901023046 | 74 | 154 | 0.0 | 0.0 | 0.00 | 0.00 | 0.00 | 74 | 1011.4 |
| 20260901023003 | 81 | 178 | 0.0 | 1.0 | 0.00 | 0.00 | 0.00 | 74 | 1010.7 |
| 20260901021544 | 74 | 150 | 0.0 | 0.0 | 0.00 | 0.00 | 0.00 | 74 | 1011.3 |
| 20260901021502 | 82 | 175 | 0.0 | 2.0 | 0.00 | 0.00 | 0.00 | 72 | 1010.5 |
| 20260901020114 | 83 | 207 | 0.0 | 0.0 | 0.00 | 0.00 | 0.00 | 69 | 1010.4 |
| 20260901020044 | 74 | 151 | 0.0 | 0.0 | 0.00 | 0.00 | 0.00 | 74 | 1011.1 |
| 20260901014559 | 85 | 359 | 0.0 | 0.0 | 0.00 | 0.00 | 0.00 | 66 | 1010.4 |
| 20260901014543 | 75 | 163 | 0.0 | 0.0 | 0.00 | 0.00 | 0.00 | 74 | 1011.0 |
| 20260901013107 | 86 | 359 | 0.0 | 0.0 | 0.00 | 0.00 | 0.00 | 64 | 1010.2 |
| 20260901013043 | 75 | 149 | 0.0 | 0.0 | 0.00 | 0.00 | 0.00 | 73 | 1011.4 |
| 20260901011558 | 88 | 195 | 0.0 | 0.0 | 0.00 | 0.00 | 0.00 | 60 | 1010.1 |
| 20260901011540 | 76 | 162 | 0.0 | 0.0 | 0.00 | 0.00 | 0.00 | 73 | 1011.2 |
| 20260901010057 | 90 | 195 | 0.0 | 0.0 | 0.00 | 0.00 | 0.00 | 56 | 1010.1 |
| 20260901010040 | 76 | 163 | 0.0 | 0.0 | 0.00 | 0.00 | 0.00 | 73 | 1011.3 |
| 20260901004600 | 92 | 195 | 0.0 | 0.0 | 0.00 | 0.00 | 0.00 | 51 | 1010.0 |
| 20260901004540 | 77 | 161 | 0.0 | 0.0 | 0.00 | 0.00 | 0.00 | 71 | 1011.4 |
| 20260901003110 | 94 | 195 | 1.0 | 5.0 | 0.00 | 0.00 | 0.00 | 47 | 1009.9 |
| 20260901003039 | 78 | 152 | 0.0 | 0.0 | 0.00 | 0.00 | 0.00 | 71 | 1011.3 |
| 20260901001608 | 95 | 220 | 1.0 | 6.0 | 0.00 | 0.00 | 0.00 | 46 | 1010.0 |
| 20260901001534 | 79 | 142 | 0.0 | 0.0 | 0.00 | 0.00 | 0.00 | 70 | 1011.4 |
| 20260901000058 | 96 | 199 | 2.0 | 7.0 | 0.00 | 0.00 | 0.00 | 45 | 1010.0 |
| 20260901000032 | 79 | 155 | 0.0 | 1.0 | 0.00 | 0.00 | 0.00 | 69 | 1011.5 |
| 20260831234602 | 97 | 221 | 6.0 | 10.0 | 0.00 | 0.00 | 0.00 | 43 | 1010.0 |
| 20260831234532 | 80 | 138 | 0.0 | 1.0 | 0.00 | 0.00 | 0.00 | 66 | 1011.5 |
| 20260831233048 | 98 | 225 | 2.0 | 4.0 | 0.00 | 0.00 | 0.00 | 42 | 1010.0 |
| 20260831233031 | 80 | 161 | 0.0 | 1.0 | 0.00 | 0.00 | 0.00 | 62 | 1011.5 |
| 20260831231542 | 98 | 197 | 3.0 | 5.0 | 0.00 | 0.00 | 0.00 | 40 | 1010.0 |
| 20260831231530 | 80 | 152 | 0.0 | 0.0 | 0.00 | 0.00 | 0.00 | 62 | 1011.6 |
| 20260831230036 | 80 | 158 | 0.0 | 0.0 | 0.00 | 0.00 | 0.00 | 63 | 1011.9 |
| 20260831224530 | 99 | 268 | 0.0 | 4.0 | 0.00 | 0.00 | 0.00 | 40 | 1010.0 |
| 20260831223029 | 82 | 166 | 0.0 | 0.0 | 0.00 | 0.00 | 0.00 | 64 | 1011.9 |
| 20260831223025 | 98 | 201 | 5.0 | 8.0 | 0.00 | 0.00 | 0.00 | 39 | 1009.9 |
| 20260831221534 | 82 | 152 | 0.0 | 0.0 | 0.00 | 0.00 | 0.00 | 63 | 1012.0 |
| 20260831221519 | 99 | 220 | 5.0 | 10.0 | 0.00 | 0.00 | 0.00 | 39 | 1010.0 |
| 20260831220028 | 81 | 152 | 0.0 | 0.0 | 0.00 | 0.00 | 0.00 | 65 | 1012.2 |
| 20260831220016 | 99 | 144 | 3.0 | 7.0 | 0.00 | 0.00 | 0.00 | 40 | 1010.0 |
| 20260831214547 | 82 | 150 | 0.0 | 1.0 | 0.00 | 0.00 | 0.00 | 64 | 1012.2 |
| 20260831214509 | 98 | 177 | 3.0 | 9.0 | 0.00 | 0.00 | 0.00 | 40 | 1010.1 |
| 20260831213057 | 99 | 241 | 3.0 | 8.0 | 0.00 | 0.00 | 0.00 | 40 | 1010.1 |
| 20260831213025 | 82 | 144 | 0.0 | 0.0 | 0.00 | 0.00 | 0.00 | 66 | 1012.5 |
| 20260831211604 | 98 | 206 | 5.0 | 10.0 | 0.00 | 0.00 | 0.00 | 40 | 1010.0 |
| 20260831211524 | 82 | 148 | 0.0 | 0.0 | 0.00 | 0.00 | 0.00 | 66 | 1012.6 |
| 20260831210049 | 98 | 252 | 4.0 | 9.0 | 0.00 | 0.00 | 0.00 | 41 | 1010.1 |
| 20260831210023 | 82 | 157 | 0.0 | 0.0 | 0.00 | 0.00 | 0.00 | 67 | 1012.7 |
| 20260831204537 | 98 | 260 | 3.0 | 9.0 | 0.00 | 0.00 | 0.00 | 40 | 1010.5 |
| 20260831204522 | 82 | 143 | 0.0 | 1.0 | 0.00 | 0.00 | 0.00 | 68 | 1012.5 |
| 20260831203029 | 98 | 212 | 4.0 | 11.0 | 0.00 | 0.00 | 0.00 | 40 | 1010.6 |
| 20260831203021 | 83 | 152 | 0.0 | 0.0 | 0.00 | 0.00 | 0.00 | 67 | 1012.7 |
| 20260831201528 | 83 | 167 | 0.0 | 0.0 | 0.00 | 0.00 | 0.00 | 67 | 1012.8 |
| 20260831201526 | 97 | 252 | 4.0 | 10.0 | 0.00 | 0.00 | 0.00 | 41 | 1010.7 |
| 20260831200115 | 97 | 266 | 3.0 | 10.0 | 0.00 | 0.00 | 0.00 | 42 | 1010.7 |
| 20260831200035 | 83 | 144 | 0.0 | 1.0 | 0.00 | 0.00 | 0.00 | 67 | 1012.7 |
| 20260831194519 | 97 | 239 | 5.0 | 11.0 | 0.00 | 0.00 | 0.00 | 42 | 1010.7 |
| 20260831193019 | 84 | 143 | 0.0 | 0.0 | 0.00 | 0.00 | 0.00 | 66 | 1012.8 |
| 20260831193004 | 96 | 192 | 5.0 | 14.0 | 0.00 | 0.00 | 0.00 | 42 | 1010.7 |
| 20260831191517 | 84 | 151 | 0.0 | 0.0 | 0.00 | 0.00 | 0.00 | 65 | 1012.7 |
| 20260831191502 | 96 | 210 | 8.0 | 17.0 | 0.00 | 0.00 | 0.00 | 42 | 1010.7 |
| 20260831190111 | 95 | 197 | 6.0 | 12.0 | 0.00 | 0.00 | 0.00 | 44 | 1010.7 |
| 20260831190016 | 84 | 146 | 0.0 | 0.0 | 0.00 | 0.00 | 0.00 | 66 | 1012.9 |
| 20260831184618 | 95 | 201 | 6.0 | 15.0 | 0.00 | 0.00 | 0.00 | 44 | 1010.8 |
| 20260831184519 | 84 | 146 | 0.0 | 0.0 | 0.00 | 0.00 | 0.00 | 65 | 1012.9 |
| 20260831183102 | 94 | 214 | 8.0 | 13.0 | 0.00 | 0.00 | 0.00 | 45 | 1010.9 |
| 20260831183010 | 83 | 153 | 0.0 | 0.0 | 0.00 | 0.00 | 0.00 | 66 | 1013.2 |
| 20260831181550 | 93 | 214 | 7.0 | 15.0 | 0.00 | 0.00 | 0.00 | 48 | 1011.0 |
| 20260831181507 | 82 | 149 | 0.0 | 0.0 | 0.00 | 0.00 | 0.00 | 67 | 1013.0 |
| 20260831180046 | 93 | 266 | 5.0 | 15.0 | 0.00 | 0.00 | 0.00 | 48 | 1011.2 |
| 20260831180003 | 81 | 141 | 0.0 | 0.0 | 0.00 | 0.00 | 0.00 | 68 | 1013.1 |
| 20260831174546 | 92 | 206 | 4.0 | 13.0 | 0.00 | 0.00 | 0.00 | 49 | 1011.3 |
| 20260831174501 | 80 | 130 | 0.0 | 0.0 | 0.00 | 0.00 | 0.00 | 71 | 1013.1 |
| 20260831173058 | 79 | 146 | 0.0 | 0.0 | 0.00 | 0.00 | 0.00 | 72 | 1013.3 |
| 20260831173052 | 92 | 177 | 7.0 | 17.0 | 0.00 | 0.00 | 0.00 | 50 | 1011.2 |
| 20260831171554 | 78 | 115 | 0.0 | 0.0 | 0.00 | 0.00 | 0.00 | 74 | 1013.1 |
| 20260831171535 | 91 | 199 | 5.0 | 15.0 | 0.00 | 0.00 | 0.00 | 51 | 1011.3 |
| 20260831170050 | 77 | 130 | 0.0 | 0.0 | 0.00 | 0.00 | 0.00 | 76 | 1013.0 |
| 20260831170032 | 90 | 223 | 7.0 | 15.0 | 0.00 | 0.00 | 0.00 | 51 | 1011.4 |
| 20260831164556 | 75 | 121 | 0.0 | 0.0 | 0.00 | 0.00 | 0.00 | 79 | 1012.9 |
| 20260831164533 | 90 | 168 | 4.0 | 12.0 | 0.00 | 0.00 | 0.00 | 52 | 1011.4 |
| 20260831163045 | 75 | 148 | 0.0 | 0.0 | 0.00 | 0.00 | 0.00 | 79 | 1012.8 |
| 20260831163026 | 88 | 209 | 9.0 | 18.0 | 0.00 | 0.00 | 0.00 | 53 | 1011.4 |
| 20260831161540 | 74 | 128 | 0.0 | 0.0 | 0.00 | 0.00 | 0.00 | 81 | 1012.8 |
| 20260831161525 | 88 | 88 | 5.0 | 16.0 | 0.00 | 0.00 | 0.00 | 55 | 1011.4 |
| 20260831160044 | 74 | 126 | 0.0 | 0.0 | 0.00 | 0.00 | 0.00 | 81 | 1012.7 |
| 20260831160028 | 86 | 237 | 9.0 | 17.0 | 0.00 | 0.00 | 0.00 | 56 | 1011.5 |
| 20260831154536 | 73 | 136 | 0.0 | 0.0 | 0.00 | 0.00 | 0.00 | 85 | 1012.6 |
| 20260831154522 | 85 | 212 | 6.0 | 14.0 | 0.00 | 0.00 | 0.00 | 58 | 1011.5 |
| 20260831153033 | 71 | 127 | 0.0 | 0.0 | 0.00 | 0.00 | 0.00 | 88 | 1012.5 |
| 20260831153021 | 84 | 212 | 5.0 | 10.0 | 0.00 | 0.00 | 0.00 | 59 | 1011.5 |
| 20260831151537 | 71 | 105 | 0.0 | 0.0 | 0.00 | 0.00 | 0.00 | 90 | 1012.5 |
| 20260831151521 | 84 | 211 | 7.0 | 16.0 | 0.00 | 0.00 | 0.00 | 60 | 1011.4 |
| 20260831150032 | 70 | 153 | 0.0 | 0.0 | 0.00 | 0.00 | 0.00 | 92 | 1012.5 |
| 20260831150020 | 83 | 193 | 6.0 | 12.0 | 0.00 | 0.00 | 0.00 | 61 | 1011.4 |
| 20260831144530 | 70 | 152 | 0.0 | 0.0 | 0.00 | 0.00 | 0.00 | 93 | 1012.4 |
| 20260831144528 | 82 | 187 | 4.0 | 12.0 | 0.00 | 0.00 | 0.00 | 63 | 1011.6 |
| 20260831143031 | 69 | 151 | 0.0 | 0.0 | 0.00 | 0.00 | 0.00 | 92 | 1012.3 |
| 20260831143024 | 80 | 188 | 7.0 | 11.0 | 0.00 | 0.00 | 0.00 | 64 | 1011.7 |
| 20260831141529 | 69 | 151 | 0.0 | 0.0 | 0.00 | 0.00 | 0.00 | 92 | 1012.1 |
| 20260831141518 | 79 | 185 | 4.0 | 11.0 | 0.00 | 0.00 | 0.00 | 65 | 1012.0 |
| 20260831140036 | 69 | 151 | 0.0 | 0.0 | 0.00 | 0.00 | 0.00 | 92 | 1012.0 |
| 20260831140017 | 78 | 208 | 3.0 | 11.0 | 0.00 | 0.00 | 0.00 | 66 | 1011.9 |
| 20260831134527 | 69 | 151 | 0.0 | 0.0 | 0.00 | 0.00 | 0.00 | 91 | 1011.8 |
| 20260831134514 | 78 | 221 | 7.0 | 10.0 | 0.00 | 0.00 | 0.00 | 65 | 1011.8 |
| 20260831133024 | 69 | 151 | 0.0 | 0.0 | 0.00 | 0.00 | 0.00 | 91 | 1011.5 |
| 20260831133013 | 78 | 240 | 5.0 | 10.0 | 0.00 | 0.00 | 0.00 | 65 | 1011.6 |
| 20260831131535 | 69 | 151 | 0.0 | 0.0 | 0.00 | 0.00 | 0.00 | 91 | 1011.4 |
| 20260831131515 | 78 | 167 | 4.0 | 12.0 | 0.00 | 0.00 | 0.00 | 64 | 1011.4 |
| 20260831130034 | 69 | 151 | 0.0 | 0.0 | 0.00 | 0.00 | 0.00 | 90 | 1011.4 |
| 20260831130016 | 78 | 205 | 7.0 | 11.0 | 0.00 | 0.00 | 0.00 | 64 | 1011.5 |
| 20260831124522 | 69 | 151 | 0.0 | 0.0 | 0.00 | 0.00 | 0.00 | 90 | 1011.3 |
| 20260831124513 | 78 | 227 | 4.0 | 10.0 | 0.00 | 0.00 | 0.00 | 64 | 1011.4 |
| 20260831123020 | 69 | 151 | 0.0 | 0.0 | 0.00 | 0.00 | 0.00 | 89 | 1011.3 |
| 20260831123008 | 77 | 203 | 4.0 | 10.0 | 0.00 | 0.00 | 0.00 | 65 | 1011.1 |
| 20260831121519 | 70 | 151 | 0.0 | 0.0 | 0.00 | 0.00 | 0.00 | 89 | 1011.2 |
| 20260831121508 | 77 | 235 | 2.0 | 9.0 | 0.00 | 0.00 | 0.00 | 65 | 1011.1 |
| 20260831120021 | 70 | 151 | 0.0 | 0.0 | 0.00 | 0.00 | 0.00 | 89 | 1011.3 |
| 20260831120013 | 77 | 359 | 4.0 | 8.0 | 0.00 | 0.00 | 0.00 | 64 | 1010.7 |
| 20260831114516 | 70 | 151 | 0.0 | 0.0 | 0.00 | 0.00 | 0.00 | 89 | 1011.2 |
| 20260831114502 | 77 | 359 | 2.0 | 7.0 | 0.00 | 0.00 | 0.00 | 64 | 1010.6 |
| 20260831113015 | 70 | 151 | 0.0 | 0.0 | 0.00 | 0.00 | 0.00 | 88 | 1011.3 |
| 20260831113002 | 77 | 359 | 3.0 | 8.0 | 0.00 | 0.00 | 0.00 | 63 | 1010.4 |
| 20260831111613 | 78 | 244 | 3.0 | 7.0 | 0.00 | 0.00 | 0.00 | 63 | 1010.5 |
| 20260831111516 | 71 | 151 | 0.0 | 0.0 | 0.00 | 0.00 | 0.00 | 88 | 1011.5 |
| 20260831110137 | 78 | 172 | 3.0 | 7.0 | 0.00 | 0.00 | 0.00 | 62 | 1010.5 |
| 20260831110012 | 71 | 151 | 0.0 | 0.0 | 0.00 | 0.00 | 0.00 | 89 | 1011.4 |
| 20260831104556 | 78 | 172 | 3.0 | 8.0 | 0.00 | 0.00 | 0.00 | 61 | 1010.4 |
| 20260831104512 | 71 | 151 | 0.0 | 0.0 | 0.00 | 0.00 | 0.00 | 89 | 1011.4 |